Location: Saint-Usage
(47.1052°N, 5.2587°E)
Time: 08:20:32
(UTC+02:00)

N. Korean satellite - Visible Passes

Search period start: 18 September 2021 00:00
Search period end: 28 September 2021 00:00
Orbit: 448 x 499 km, 97.3° (Epoch: 17 September)

Date Brightness Start Highest point End Pass type
(mag) Time Alt. Az. Time Alt. Az. Time Alt. Az.
19 Sep 7.6 06:45:47 10° NNE 06:49:13 50° E 06:52:39 10° S visible
20 Sep 9.2 06:18:29 10° NE 06:21:22 23° E 06:24:17 10° SSE visible
21 Sep 10.0 05:52:05 10° ENE 05:53:25 12° E 05:54:44 10° ESE visible
22 Sep 6.9 06:55:42 10° NNE 06:59:13 69° ESE 07:02:46 10° S visible
23 Sep 8.7 06:28:13 10° NNE 06:31:24 31° E 06:34:35 10° SSE visible
24 Sep 9.7 06:01:17 10° NE 06:03:28 15° E 06:05:38 10° SE visible
26 Sep 8.1 06:37:58 10° NNE 06:41:21 41° E 06:44:46 10° S visible
27 Sep 9.5 06:10:44 10° NE 06:13:27 20° E 06:16:09 10° SE visible
